Farmingdale, NY

6:47 PM EST on November 20, 2017 (GMT -0500)
Republic

Weather History for KFRG - November, 2013

Change the Weather History Date:

Friday, November 8, 2013

  Actual Average Record
Temperature  
Mean Temperature 44 °F -  
Max Temperature 48 °F 52 °F 66 °F (1996)
Min Temperature 39 °F 38 °F 30 °F (2007)
Degree Days  
Heating Degree Days 22    
Moisture  
Dew Point 26 °F    
Average Humidity 50    
Maximum Humidity 68    
Minimum Humidity 35    
Precipitation  
Precipitation 0.00 in - - ()
Sea Level Pressure  
Sea Level Pressure 30.05 in    
Wind  
Wind Speed 9 mph (WNW)    
Max Wind Speed 16 mph    
Max Gust Speed 30 mph    
Visibility 10 miles    
Events      
Averages and records for this station are not official NWS values.
T = Trace of Precipitation, MM = Missing Value Source: NWS Daily Summary

Daily Weather History Graph

Daily Weather History Graph

Search for Another Location

Airport or City:

Trip Planner

Search our weather history database for the weather conditions in past years. The results will help you decide how hot, cold, wet, or windy it might be!

Date:

Astronomy

Nov. 08, 2013 Rise Set
Actual Time 6:32 AM EST 4:41 PM EST
Civil Twilight 6:03 AM EST 5:10 PM EST
Nautical Twilight 5:30 AM EST 5:43 PM EST
Astronomical Twilight 4:58 AM EST 6:15 PM EST
Moon 11:26 AM EST (11/8) 9:59 PM EST (11/8)
Length of Visible Light 11h 07m
Length of Day
10h 09m
Waxing Crescent, 33% of the Moon is Illuminated
Nov 8
Waxing Crescent
Nov 10
First Quarter
Nov 17
Full
Nov 25
Last Quarter
Dec 2
New

Hourly Weather History & Observations

Time (EST) Temp. Windchill Dew Point Humidity Pressure Visibility Wind Dir Wind Speed Gust Speed Precip Events Conditions
12:53 AM 39.9 °F 35.8 °F 30.0 °F 68% 29.94 in 10.0 mi WNW 5.8 mph - N/A   Clear
1:53 AM 41.0 °F 37.1 °F 30.0 °F 65% 29.95 in 10.0 mi West 5.8 mph - N/A   Partly Cloudy
2:53 AM 42.1 °F 38.4 °F 28.9 °F 60% 29.96 in 10.0 mi WNW 5.8 mph - N/A   Clear
3:53 AM 41.0 °F 37.1 °F 30.9 °F 67% 29.96 in 10.0 mi WNW 5.8 mph - N/A   Clear
4:53 AM 41.0 °F 34.7 °F 28.9 °F 62% 29.98 in 10.0 mi WNW 10.4 mph 18.4 mph N/A   Clear
5:53 AM 39.9 °F 36.7 °F 28.9 °F 65% 29.99 in 10.0 mi WNW 4.6 mph - N/A   Clear
6:53 AM 39.9 °F 34.5 °F 28.9 °F 65% 30.01 in 10.0 mi WNW 8.1 mph - N/A   Clear
7:53 AM 42.1 °F 35.7 °F 30.0 °F 62% 30.03 in 10.0 mi West 11.5 mph 19.6 mph N/A   Clear
8:53 AM 43.0 °F 36.0 °F 28.0 °F 56% 30.04 in 10.0 mi WNW 13.8 mph 24.2 mph N/A   Clear
9:53 AM 45.0 °F 38.9 °F 27.0 °F 49% 30.03 in 10.0 mi WNW 12.7 mph 24.2 mph N/A   Clear
10:53 AM 46.9 °F - 27.0 °F 46% 30.02 in 10.0 mi WNW 11.5 mph 21.9 mph N/A   Clear
11:53 AM 48.9 °F - 23.0 °F 36% 30.01 in 10.0 mi NW 15.0 mph 29.9 mph N/A   Clear
12:53 PM 48.9 °F - 23.0 °F 36% 30.01 in 10.0 mi WNW 16.1 mph 26.5 mph N/A   Partly Cloudy
1:53 PM 48.0 °F - 21.9 °F 36% 30.02 in 10.0 mi NW 13.8 mph 24.2 mph N/A   Mostly Cloudy
2:53 PM 48.9 °F - 21.9 °F 35% 30.04 in 10.0 mi NW 16.1 mph 24.2 mph N/A   Partly Cloudy
3:53 PM 46.9 °F - 23.0 °F 39% 30.06 in 10.0 mi WNW 13.8 mph 23.0 mph N/A   Scattered Clouds
4:53 PM 46.0 °F 39.9 °F 21.9 °F 39% 30.08 in 10.0 mi WNW 13.8 mph 19.6 mph N/A   Overcast
5:53 PM 45.0 °F 38.9 °F 24.1 °F 44% 30.12 in 10.0 mi NW 12.7 mph - N/A   Clear
6:53 PM 44.1 °F 39.0 °F 24.1 °F 45% 30.14 in 10.0 mi NW 9.2 mph 21.9 mph N/A   Partly Cloudy
7:53 PM 43.0 °F 36.4 °F 21.9 °F 43% 30.15 in 10.0 mi NW 12.7 mph 23.0 mph N/A   Clear
8:53 PM 43.0 °F 38.2 °F 21.0 °F 42% 30.17 in 10.0 mi NW 8.1 mph 17.3 mph N/A   Clear
9:53 PM 42.1 °F 35.7 °F 21.9 °F 45% 30.19 in 10.0 mi NW 11.5 mph 19.6 mph N/A   Clear
10:53 PM 41.0 °F 35.2 °F 23.0 °F 49% 30.19 in 10.0 mi NW 9.2 mph - N/A   Clear
11:53 PM 39.9 °F 35.8 °F 24.1 °F 53% 30.21 in 10.0 mi WNW 5.8 mph - N/A   Clear